Weather History for Fort Leonard Wood, MO

Change the Weather History Date:

Monday, September 8, 2014

  Actual Average Record
Temperature  
Mean Temperature 69 °F -  
Max Temperature 84 °F 80 °F 89 °F (2005)
Min Temperature 55 °F 61 °F 43 °F (2011)
Cooling Degree Days 4    
Growing Degree Days 19 (Base 50)    
Moisture  
Dew Point 62 °F    
Average Humidity 72    
Maximum Humidity 97    
Minimum Humidity 53    
Precipitation  
Precipitation 0.00 in - - ()
Sea Level Pressure  
Sea Level Pressure 30.04 in    
Wind  
Wind Speed 6 mph (SSE)    
Max Wind Speed 9 mph    
Max Gust Speed -    
Visibility 10 miles    
Events      
Averages and records for this station are not official NWS values.
T = Trace of Precipitation, MM = Missing Value Source: NWS Daily Summary

Daily Weather History Graph

Daily Weather History Graph

Search for Another Location

Airport:

Trip Planner

Search our weather history database for the weather conditions in past years. The results will help you decide how hot, cold, wet, or windy it might be!

Date:

Astronomy

Sep. 08, 2014 Rise Set
Actual Time 6:44 AM CDT 7:27 PM CDT
Civil Twilight 6:18 AM CDT 7:53 PM CDT
Nautical Twilight 5:46 AM CDT 8:24 PM CDT
Astronomical Twilight 5:14 AM CDT 8:57 PM CDT
Moon 7:08 PM CDT (9/8) 6:09 AM CDT (9/8)
Length of Visible Light 13h 35m
Length of Day
12h 42m
Full, 100% of the Moon is Illuminated
Sep 8
Full
Sep 8
Full
Sep 15
Last Quarter
Sep 24
New
Oct 1
First Quarter

Hourly Weather History & Observations

Time (CDT) Temp. Heat Index Dew Point Humidity Pressure Visibility Wind Dir Wind Speed Gust Speed Precip Events Conditions
12:58 AM 57.7 °F - 54.1 °F 88% 30.11 in 10.0 mi SE 4.6 mph - N/A   Clear
1:58 AM 57.4 °F - 54.0 °F 88% 30.09 in 10.0 mi SE 4.6 mph - N/A   Clear
6:58 AM 55.2 °F - 54.3 °F 97% 30.09 in 10.0 mi SE 5.8 mph - N/A   Clear
7:58 AM 58.8 °F - 55.6 °F 89% 30.10 in 10.0 mi SSE 8.1 mph - N/A   Clear
8:58 AM 63.9 °F - 57.9 °F 81% 30.09 in 10.0 mi SSE 9.2 mph - N/A   Overcast
9:58 AM 68.4 °F - 59.2 °F 72% 30.10 in 10.0 mi SSE 8.1 mph - N/A   Mostly Cloudy
10:58 AM 73.4 °F - 61.0 °F 65% 30.10 in 10.0 mi South 9.2 mph - N/A   Overcast
11:58 AM 78.4 °F - 62.4 °F 58% 30.08 in 10.0 mi Variable 5.8 mph - N/A   Scattered Clouds
12:58 PM 80.4 °F 82.0 °F 63.9 °F 57% 30.05 in 10.0 mi Variable 5.8 mph - N/A   Mostly Cloudy
1:58 PM 80.1 °F 82.1 °F 65.8 °F 62% 30.04 in 10.0 mi Variable 5.8 mph - N/A   Overcast
2:58 PM 82.4 °F 84.2 °F 65.3 °F 56% 30.02 in 10.0 mi South 9.2 mph - N/A   Scattered Clouds
3:58 PM 83.8 °F 85.6 °F 65.1 °F 53% 30.01 in 10.0 mi Variable 5.8 mph - N/A   Mostly Cloudy
4:58 PM 82.4 °F 84.6 °F 66.2 °F 58% 29.99 in 10.0 mi SSW 5.8 mph - N/A   Mostly Cloudy
5:58 PM 82.0 °F 83.3 °F 63.5 °F 53% 29.98 in 10.0 mi Variable 5.8 mph - N/A   Partly Cloudy
6:58 PM 80.2 °F 82.3 °F 66.0 °F 62% 29.98 in 10.0 mi South 4.6 mph - N/A   Clear
7:58 PM 74.8 °F - 65.7 °F 73% 29.98 in 10.0 mi South 4.6 mph - N/A   Clear
8:58 PM 73.6 °F - 65.3 °F 75% 29.99 in 10.0 mi SSE 4.6 mph - N/A   Partly Cloudy
9:58 PM 71.2 °F - 65.1 °F 81% 30.00 in 10.0 mi SSE 2.3 mph - N/A   Scattered Clouds
10:58 PM 71.1 °F - 65.8 °F 84% 30.00 in 10.0 mi SE 5.8 mph - N/A   Overcast
11:58 PM 68.7 °F - 65.1 °F 88% 30.00 in 10.0 mi SSE 6.9 mph - N/A   Clear